Regional Weather Roundup
Issued by NWS

Home | Current Version | Previous Version | Graphics & Text | Print | Product List | Glossary On
Versions: 1 2 3 4 5 6 7 8 9 10 11 12 13 14 15 16 17 18 19 20 21 22 23 24 25 26 27 28 29 30 31 32 33 34 35 36 37 38 39 40 41 42 43 44 45 46 47 48 49 50
000
ASUS43 KLSX 180707
RWRMO

WEATHER SUMMARY FOR MISSOURI
NATIONAL WEATHER SERVICE SPRINGFIELD MO
100 AM CST WED JAN 18 2017

NOTE: "FAIR" INDICATES FEW OR NO CLOUDS BELOW 12,000 FEET WITH NO
       SIGNIFICANT WEATHER AND/OR OBSTRUCTIONS TO VISIBILITY.
       CURRENT SKY AND/OR WEATHER CONDITIONS ARE NOT AVAILABLE FOR
       CHILLICOTHE AND FARMINGTON.

MOZ001>031-035>038-043-044-053-054-180800-
...NORTHERN AND WESTERN MISSOURI...

CITY           SKY/WX    TMP DP  RH WIND       PRES   REMARKS
KANSAS CTY INT CLOUDY    27  25  92 S7        30.15S FOG     WCI  19
KANSAS C DTWN  CLOUDY    32  32 100 CALM      30.16S FOG
LEE`S SUMMIT   CLOUDY    34  33  96 SW8       30.16F WCI  27
ST JOSEPH      CLOUDY    26  25  96 CALM      30.16R FOG
CHILLICOTHE      N/A     32  31  96 CALM      30.17F
KIRKSVILLE     CLOUDY    33  30  88 W7        30.15F WCI  27

$$
MOZ066>068-077>081-088>096-101>105-180800-
...SOUTHWEST MISSOURI...

CITY           SKY/WX    TMP DP  RH WIND       PRES   REMARKS
SPRINGFIELD    CLOUDY    37  36  96 SW5       30.17F FOG
JOPLIN         CLOUDY    38  37  97 CALM      30.18F
BRANSON        CLOUDY    37  37 100 CALM      30.19S

$$
MOZ032>034-039>042-045>050-055>058-069>072-180800-
...CENTRAL MISSOURI...

CITY           SKY/WX    TMP DP  RH WIND       PRES   REMARKS
COLUMBIA       CLOUDY    37  33  85 W7        30.19R
JEFFERSON CITY CLOUDY    39  33  79 W9        30.21S
ROLLA          CLOUDY    36  35  96 SW9       30.17F WCI  29
SEDALIA        CLOUDY    38  34  85 SW6       30.20S
WHITEMAN AFB   CLOUDY    35  35 100 SW5       30.18F
WARRENSBURG    CLOUDY    36  34  93 S10G17    30.19S WCI  28
OSAGE BEACH    CLOUDY    38  34  85 W8        30.21S

$$
MOZ051-052-059>065-180800-
...EAST CENTRAL MISSOURI...

CITY           SKY/WX    TMP DP  RH WIND       PRES   REMARKS
ST LOUIS INTL  CLOUDY    41  35  79 W13       30.18R
SPIRIT OF STL  CLOUDY    40  36  86 W7        30.18S
ST CHARLES     CLOUDY    39  37  92 W7        30.18R

$$
MOZ072>076-082>087-097>100-106>115-180800-
...SOUTH CENTRAL AND SOUTHEAST MISSOURI...

CITY           SKY/WX    TMP DP  RH WIND       PRES   REMARKS
CAPE GIRARDEAU CLOUDY    43  38  82 NW7       30.19R
FARMINGTON     CLOUDY    37  35  92 W5        30.19R
POPLAR BLUFF   CLOUDY    43  38  82 N9        30.17F
WEST PLAINS    CLOUDY    38  36  92 NW8       30.19F

$$


USA.gov is the U.S. government's official web portal to all federal, state and local government web resources and services.